Wetbulb
50.36 50.57 50.60 50.81 50.61 50.98 51.77 52.31 52.81 53.39 53.90 54.47 55.72 55.60 55.02 54.64 54.66 51.64 46.77 54.54 56.67 59.34 59.02 52.93 50.78 50.08 49.82 47.97 49.43 48.99 42.24 40.27 42.58 44.31 46.45 50.19 47.41 51.21 50.80 49.31 52.38 55.31 55.55 60.00 63.88
49.72 49.83 49.90 49.96 49.86 50.02 50.30 50.38 51.04 51.99 52.60 53.11 53.73 54.35 55.51 54.54 50.39 47.90 55.55 57.81 59.21 58.60 54.17 49.98 47.72 48.16 46.47 46.20 47.45 44.78 41.22 41.83 45.85 46.80 46.60 48.51 47.30 49.41 47.81 47.96 49.97 53.56 58.52 61.65 61.66
49.63 49.44 49.55 49.56 49.73 49.95 49.93 49.84 49.83 50.05 50.45 50.97 52.34 53.26 54.74 54.30 46.58 49.15 54.60 55.49 56.69 57.44 55.17 51.54 49.26 47.17 45.04 46.61 46.00 45.14 40.71 44.77 45.71 46.43 46.78 45.78 46.23 48.20 46.78 46.16 49.54 50.68 56.03 59.45 59.15
49.91 49.66 49.64 49.66 49.71 49.96 49.83 49.60 49.64 49.69 49.94 50.04 50.22 51.65 53.30 50.61 37.87 51.46 52.67 53.21 55.59 54.91 51.96 49.69 47.61 44.64 43.68 43.14 45.97 41.62 44.55 44.98 45.53 46.23 45.00 44.11 46.60 45.73 46.39 47.88 49.67 51.67 54.92 59.19 59.36
50.44 50.35 49.98 49.79 49.82 49.94 49.90 49.68 49.57 49.66 49.82 49.93 50.00 49.97 49.13 43.33 43.76 52.05 53.74 52.56 51.57 50.15 49.68 47.66 45.26 44.87 42.17 44.71 45.09 42.45 43.84 44.73 45.33 45.12 44.65 45.55 44.14 44.92 46.02 48.93 49.65 51.45 55.06 57.94 59.14
48.87 49.54 49.87 50.00 50.14 50.15 49.98 49.90 49.72 49.66 49.77 49.60 49.57 49.29 43.93 35.93 51.19 52.41 51.29 50.87 50.61 48.34 47.65 49.18 45.77 45.92 43.38 43.15 42.99 45.14 44.08 44.14 45.00 44.32 44.50 42.58 43.44 44.68 46.08 48.64 48.74 48.07 50.17 54.60 57.61
48.11 47.83 48.44 48.97 49.65 49.79 49.70 49.57 49.62 49.51 49.56 49.40 49.35 46.80 40.88 39.20 50.24 51.50 50.90 49.55 49.79 48.50 44.82 48.77 49.92 44.70 44.78 41.81 45.46 43.98 40.36 42.72 43.29 43.91 42.93 44.48 40.70 41.41 46.23 47.32 47.03 48.08 48.39 49.51 54.71
47.89 47.68 47.81 47.96 48.38 48.65 48.76 49.00 49.11 49.13 48.51 48.48 50.33 45.75 37.14 48.98 51.67 49.47 49.92 48.49 50.36 49.72 47.55 48.13 49.29 46.61 43.85 44.80 42.72 39.68 40.73 36.30 43.22 43.99 43.86 42.68 37.65 43.52 46.55 46.06 45.69 46.93 48.05 48.47 49.15
47.36 47.22 47.13 47.62 47.88 48.01 48.37 48.78 48.43 48.38 47.07 48.87 45.97 42.87 37.88 48.69 45.92 47.99 49.55 47.23 48.52 48.92 47.76 48.02 48.28 44.36 44.37 38.37 36.28 38.96 34.78 37.43 39.93 43.88 42.83 41.41 39.38 44.45 46.29 46.01 45.69 46.47 47.18 47.72 48.61
46.88 46.97 46.93 47.37 47.31 47.69 48.14 47.92 47.44 45.83 43.89 48.10 45.84 38.35 42.68 38.12 42.48 43.08 47.08 48.38 44.47 45.07 43.98 43.30 43.40 39.75 39.80 37.87 30.07 33.82 35.50 37.12 37.82 42.49 41.23 40.14 39.38 43.87 44.74 44.25 45.38 45.97 46.91 47.48 47.94
46.90 46.99 47.01 46.93 47.18 47.61 46.21 43.83 38.02 38.06 37.38 32.67 33.15 33.34 35.23 39.97 42.58 39.84 42.98 40.85 41.50 38.95 36.08 40.96 36.40 33.71 37.30 39.50 39.49 38.42 38.05 36.99 40.33 43.08 39.27 38.89 39.24 42.17 44.69 44.80 44.02 44.22 45.30 46.28 47.21
46.19 46.59 46.85 46.57 47.21 46.75 45.23 37.87 36.41 36.29 29.08 35.83 35.61 35.31 37.85 40.14 34.32 39.08 42.92 36.11 33.67 29.47 36.55 35.89 32.17 38.43 40.34 40.33 39.43 37.96 35.80 36.30 39.96 42.60 37.35 38.11 38.63 41.59 43.43 43.96 44.84 44.95 45.05 45.64 46.54
46.07 46.05 46.30 46.76 46.80 44.75 41.58 39.27 43.85 41.93 29.23 31.14 34.05 33.78 36.53 40.11 34.44 35.78 37.91 34.86 32.60 29.39 29.84 27.76 34.45 39.57 37.93 37.36 36.35 37.81 35.86 36.02 36.19 39.99 38.35 36.53 35.57 38.16 42.19 43.82 44.58 45.34 46.19 46.41 46.32
45.92 46.28 45.94 46.65 42.83 42.52 39.17 43.43 44.34 42.47 24.85 26.80 30.59 35.88 37.81 37.50 32.57 37.52 38.13 33.80 30.08 26.36 28.14 27.47 34.34 33.04 33.62 33.85 37.16 32.54 39.64 37.93 37.51 35.78 31.84 39.39 29.76 38.98 43.06 43.96 44.50 44.93 45.55 45.63 46.57
45.51 45.79 45.96 45.65 42.34 39.07 41.23 44.05 43.65 39.31 13.03 27.74 31.27 42.50 36.67 31.65 32.27 33.14 38.31 34.85 27.92 27.85 25.83 27.01 29.75 31.23 30.72 32.81 36.91 34.89 39.17 38.07 37.12 34.62 33.06 33.95 31.96 36.15 41.36 40.80 43.51 45.80 46.82 47.03 47.93
45.31 45.34 45.48 43.75 43.48 42.88 44.57 43.40 39.51 23.75 11.29 22.66 30.03 28.86 28.37 30.83 31.30 33.39 32.90 35.41 33.77 28.16 28.66 27.22 35.41 33.77 34.56 36.99 36.71 39.21 36.92 36.84 36.65 34.04 25.46 32.04 33.13 34.64 38.85 41.29 43.48 46.29 47.44 48.58 48.62
44.83 44.98 44.00 44.11 38.24 44.64 44.22 38.49 22.32 14.11 26.00 21.96 24.67 27.80 26.28 25.98 27.40 28.68 26.59 25.25 22.91 18.80 20.78 26.00 27.20 34.31 35.00 29.22 36.62 35.62 32.81 25.85 23.79 24.61 24.01 34.95 32.25 35.43 42.02 43.63 44.66 45.41 46.87 48.56 50.22
44.43 44.42 43.31 42.86 44.88 44.30 40.99 29.07 13.08 19.88 21.01 27.95 26.36 26.03 22.66 26.33 25.48 26.07 24.20 21.98 26.55 24.65 21.54 20.06 20.63 30.26 34.58 30.76 29.96 33.14 32.54 26.64 18.40 21.45 25.62 33.96 29.89 35.92 43.14 44.85 45.25 45.74 47.31 48.60 49.77
43.63 42.54 41.59 42.73 44.08 42.38 32.95 18.78 18.14 21.91 25.57 23.73 24.38 20.84 21.09 24.56 24.46 23.99 23.17 22.23 25.12 26.71 19.26 17.07 19.81 28.68 29.03 35.18 33.64 31.53 27.89 36.44 30.73 26.37 27.13 32.15 34.82 39.53 42.83 43.05 43.26 43.95 46.21 47.41 48.55
39.98 38.39 38.33 41.95 42.97 38.01 26.97 20.55 22.58 27.33 27.04 25.75 18.14 21.61 17.11 20.45 20.01 21.09 21.17 25.67 24.14 27.37 28.38 23.50 16.88 26.40 30.81 35.31 35.87 33.15 36.91 26.45 29.37 21.70 20.66 28.82 31.69 33.89 39.07 40.68 43.48 44.51 44.62 45.85 47.56
39.00 32.34 39.20 42.46 41.68 31.68 21.70 22.34 24.90 29.38 28.80 23.25 20.97 19.80 20.25 19.06 20.73 19.65 20.42 24.95 27.14 26.37 27.96 25.15 22.20 23.48 29.67 29.35 28.08 30.62 29.10 31.11 32.69 30.74 25.21 24.40 30.62 40.54 41.29 43.19 43.88 44.28 43.76 45.64 46.97
35.39 26.57 39.72 42.01 27.68 28.50 23.69 25.01 26.76 26.61 29.54 26.33 25.67 23.06 21.18 21.63 19.61 19.17 19.27 22.92 29.03 27.56 23.12 25.88 23.68 19.94 23.79 31.96 34.78 35.10 32.38 32.03 25.96 25.22 29.79 30.19 31.69 39.59 39.88 40.45 40.90 42.34 40.42 40.88 44.34
31.31 32.06 38.81 37.10 21.79 23.55 25.76 22.87 24.73 24.59 25.51 24.50 22.94 25.04 25.68 20.97 16.61 20.89 22.45 27.72 28.82 27.19 25.51 28.17 22.87 16.55 18.30 28.38 31.15 29.50 32.96 34.68 34.19 33.65 28.31 26.55 30.33 40.22 41.05 40.73 40.08 40.45 40.54 40.09 41.30
30.95 26.04 30.16 31.91 31.32 25.23 22.82 22.50 21.56 27.39 24.93 25.94 24.61 25.93 22.92 20.55 23.36 19.71 21.07 26.26 28.95 27.72 31.57 30.46 24.45 19.71 14.96 19.56 26.40 25.46 30.21 33.43 33.13 27.66 29.32 30.71 33.07 38.46 39.29 38.81 39.36 40.17 41.29 41.34 40.83
31.01 27.81 28.61 23.25 24.78 25.37 25.25 23.42 20.92 21.15 26.44 26.84 22.79 22.74 21.12 17.50 18.77 18.95 22.64 24.35 26.87 30.24 28.66 28.36 21.04 23.41 23.87 25.31 27.23 28.75 29.53 30.97 29.47 32.70 28.62 32.52 33.26 38.28 38.44 38.55 38.36 39.29 40.45 40.97 40.72
28.01 27.89 29.70 27.00 27.10 24.42 24.20 21.71 21.18 23.14 23.74 21.97 21.14 23.73 24.08 19.76 21.34 18.63 21.81 22.16 21.10 25.91 24.83 27.95 19.98 22.66 19.70 24.83 24.76 24.42 29.19 31.26 31.23 32.36 32.77 33.66 32.86 40.82 40.81 40.54 40.30 39.54 39.87 40.58 41.01
33.57 33.79 29.89 26.69 25.63 23.48 23.24 22.84 22.83 25.35 26.33 27.29 25.68 23.82 22.12 24.17 27.66 28.65 28.82 27.86 26.83 23.98 23.54 22.81 21.70 18.56 16.39 22.69 21.48 20.50 25.81 27.20 32.05 34.66 34.48 30.01 36.58 39.20 39.30 39.73 40.60 40.72 41.41 41.27 42.65
MSLP
1025.06 1024.72 1024.25 1023.86 1023.55 1023.29 1022.79 1022.31 1021.97 1021.45 1021.04 1020.35 1019.82 1019.25 1018.57 1018.05 1017.08 1015.54 1015.14 1015.53 1015.09 1014.52 1014.44 1013.40 1012.61 1012.05 1011.84 1011.16 1011.06 1010.42 1008.89 1006.74 1005.76 1005.27 1004.70 1004.75 1005.06 1004.76 1005.18 1004.86 1004.89 1005.47 1005.73 1007.04 1008.39
1025.45 1025.06 1024.57 1024.19 1023.84 1023.43 1022.90 1022.59 1022.09 1021.68 1021.14 1020.62 1020.14 1019.43 1018.69 1018.02 1016.70 1015.62 1016.31 1015.86 1015.20 1014.67 1014.02 1013.28 1012.49 1011.89 1011.26 1010.92 1010.56 1009.86 1008.21 1006.32 1005.95 1005.35 1005.09 1005.08 1005.40 1004.86 1005.23 1004.90 1004.90 1005.56 1006.91 1007.49 1009.08
1025.58 1025.26 1024.87 1024.43 1024.10 1023.58 1023.12 1022.70 1022.25 1021.83 1021.32 1020.89 1020.47 1019.79 1019.06 1017.86 1016.13 1015.45 1016.33 1015.95 1015.34 1014.71 1014.18 1013.72 1013.12 1012.59 1011.33 1010.50 1009.99 1009.03 1007.61 1006.76 1006.04 1006.21 1006.35 1006.10 1005.68 1005.59 1005.26 1004.60 1004.38 1004.75 1006.10 1007.88 1008.93
1025.62 1025.38 1024.98 1024.50 1024.09 1023.77 1023.24 1022.85 1022.45 1021.90 1021.47 1021.00 1020.60 1020.04 1019.48 1017.97 1016.44 1015.90 1016.30 1016.09 1015.71 1014.99 1014.29 1013.56 1012.97 1012.29 1011.35 1010.11 1009.62 1008.82 1007.74 1007.42 1006.82 1006.74 1007.09 1006.70 1006.12 1005.51 1005.40 1004.64 1005.05 1004.72 1005.03 1007.16 1008.28
1025.78 1025.41 1024.98 1024.56 1024.08 1023.57 1023.17 1022.85 1022.31 1021.67 1021.25 1021.02 1020.72 1020.25 1019.70 1018.24 1016.12 1015.44 1016.16 1016.09 1015.81 1015.53 1014.59 1013.80 1013.02 1012.21 1011.13 1009.93 1009.48 1008.77 1007.97 1007.42 1007.17 1007.29 1007.28 1007.12 1006.48 1005.88 1004.99 1004.88 1005.25 1005.73 1006.08 1006.61 1007.50
1025.85 1025.49 1024.99 1024.56 1024.10 1023.52 1023.06 1022.72 1022.20 1021.49 1020.94 1020.73 1020.63 1020.54 1019.69 1018.45 1016.04 1016.03 1015.89 1015.86 1015.87 1015.87 1014.92 1014.34 1013.17 1012.65 1011.63 1010.68 1009.69 1008.45 1008.12 1007.52 1007.18 1007.10 1007.22 1007.06 1006.15 1005.99 1005.00 1005.21 1004.76 1005.27 1005.91 1006.18 1006.65
1026.01 1025.39 1025.03 1024.60 1024.02 1023.62 1023.06 1022.49 1022.08 1021.38 1020.67 1020.27 1020.16 1020.05 1019.37 1018.09 1016.77 1016.54 1016.13 1015.76 1015.63 1015.66 1015.44 1014.69 1014.14 1013.52 1011.79 1010.86 1010.00 1009.33 1008.45 1007.62 1006.97 1006.88 1006.83 1006.85 1005.49 1004.70 1004.78 1004.91 1004.48 1004.38 1004.83 1005.44 1005.80
1026.16 1025.64 1025.14 1024.49 1024.09 1023.48 1023.06 1022.24 1021.62 1021.12 1020.35 1019.74 1019.38 1019.36 1018.35 1017.38 1016.96 1016.69 1016.10 1015.58 1015.27 1015.18 1015.39 1015.17 1014.72 1013.92 1012.63 1011.39 1010.29 1009.48 1008.29 1006.76 1005.90 1006.03 1006.45 1006.88 1003.40 1003.56 1003.69 1003.89 1003.68 1003.62 1003.61 1004.25 1004.84
1026.15 1025.73 1025.13 1024.41 1023.86 1023.46 1022.55 1021.91 1020.88 1020.71 1020.24 1019.04 1018.89 1018.68 1017.49 1017.16 1016.92 1016.96 1016.58 1016.01 1015.48 1014.88 1014.74 1014.72 1014.26 1013.19 1012.00 1011.27 1010.21 1008.51 1006.42 1005.70 1005.34 1005.22 1005.85 1005.82 1003.65 1002.99 1002.90 1002.56 1002.50 1002.56 1002.69 1002.82 1003.31
1026.12 1025.74 1025.10 1024.63 1023.95 1023.51 1022.75 1021.47 1020.07 1020.37 1019.96 1018.68 1018.63 1018.66 1017.57 1017.48 1017.57 1017.37 1016.92 1016.49 1015.92 1014.94 1014.14 1014.40 1013.75 1012.41 1011.01 1009.90 1006.87 1007.22 1006.31 1005.73 1004.66 1004.57 1005.05 1004.40 1003.38 1002.69 1002.56 1002.50 1002.15 1002.05 1001.76 1001.80 1001.93
1026.17 1025.81 1025.29 1024.80 1024.12 1023.66 1022.44 1020.60 1020.25 1019.86 1020.91 1020.14 1019.73 1019.54 1018.64 1017.96 1018.14 1017.57 1017.20 1016.66 1016.47 1015.95 1014.35 1013.45 1012.81 1009.50 1009.23 1008.77 1007.73 1006.96 1005.54 1004.56 1003.96 1004.14 1004.83 1004.03 1003.54 1002.58 1002.18 1001.95 1001.85 1001.90 1001.49 1001.26 1001.27
1026.22 1026.01 1025.18 1024.64 1024.22 1023.83 1022.71 1022.11 1023.30 1024.11 1021.68 1020.81 1019.62 1019.18 1018.94 1018.54 1018.15 1017.74 1017.76 1017.26 1016.67 1015.77 1014.61 1013.57 1010.58 1009.67 1009.88 1008.90 1007.92 1006.88 1005.63 1003.93 1004.22 1003.88 1004.90 1004.06 1002.83 1002.15 1001.55 1001.08 1000.73 1000.62 1000.57 1000.67 1000.90
1026.14 1025.73 1025.12 1024.57 1024.30 1023.79 1023.34 1023.50 1023.45 1023.44 1022.08 1020.09 1019.31 1018.86 1018.72 1018.73 1017.84 1017.96 1018.14 1017.75 1017.44 1016.45 1016.12 1014.82 1010.91 1010.58 1010.07 1008.68 1007.43 1005.86 1004.84 1004.45 1004.42 1004.42 1004.64 1004.41 1002.36 1001.43 1000.56 1000.33 999.89 999.55 999.63 999.72 999.76
1026.20 1025.80 1025.21 1024.92 1024.30 1024.09 1023.41 1023.67 1023.43 1023.31 1021.86 1019.63 1018.82 1018.88 1018.83 1018.39 1018.00 1018.43 1017.83 1018.48 1018.01 1017.22 1017.01 1015.20 1011.88 1011.89 1010.09 1008.40 1007.74 1005.65 1005.44 1006.08 1005.30 1005.25 1003.69 1003.78 1000.51 999.54 998.71 998.01 997.89 998.07 998.29 998.57 998.85
1026.30 1025.91 1025.46 1025.08 1024.58 1024.13 1024.21 1023.88 1023.45 1023.09 1021.85 1019.66 1018.80 1019.16 1018.71 1018.99 1018.49 1017.90 1017.80 1017.60 1017.56 1016.90 1017.66 1013.21 1012.67 1011.38 1009.88 1008.14 1008.52 1004.82 1006.63 1005.83 1005.86 1005.32 1004.97 1003.87 1002.17 997.27 998.32 997.09 996.27 996.49 996.72 997.25 997.67
1026.33 1025.88 1025.49 1024.88 1024.60 1024.52 1024.41 1024.20 1023.61 1023.04 1021.09 1019.97 1019.23 1019.16 1019.22 1018.93 1018.15 1017.50 1017.81 1017.81 1017.51 1016.62 1015.82 1013.56 1012.38 1011.10 1009.53 1008.81 1008.18 1007.93 1006.88 1006.04 1005.93 1005.78 1004.72 1001.85 1001.95 996.70 996.44 995.50 995.84 995.43 995.61 995.82 996.41
1026.38 1025.88 1025.53 1025.06 1024.60 1024.72 1024.70 1024.42 1023.87 1022.59 1021.32 1020.31 1019.59 1019.77 1019.75 1018.82 1018.25 1017.88 1017.86 1017.55 1016.94 1015.90 1014.17 1012.80 1011.63 1010.14 1009.82 1010.34 1008.12 1007.69 1006.84 1005.94 1005.70 1004.93 1002.26 1000.49 1000.60 995.27 994.91 994.90 994.99 994.83 994.98 994.98 995.15
1026.29 1025.74 1025.11 1025.14 1024.74 1024.94 1024.99 1024.93 1023.69 1022.03 1021.53 1020.86 1020.66 1020.37 1019.85 1019.08 1018.81 1018.29 1018.01 1017.08 1016.61 1016.16 1015.26 1013.05 1010.13 1009.16 1008.03 1008.29 1007.69 1005.93 1005.70 1003.18 1002.42 1001.84 998.52 999.51 996.93 994.27 994.59 994.57 994.86 994.97 994.88 994.96 994.80
1026.12 1025.18 1024.93 1024.92 1025.00 1025.31 1025.44 1024.54 1022.73 1022.05 1021.50 1021.38 1021.19 1020.43 1019.97 1019.60 1019.26 1018.76 1018.02 1017.19 1016.71 1016.16 1016.16 1014.54 1010.90 1009.54 1008.83 1007.15 1006.91 1005.50 1004.22 1002.35 1001.63 1001.50 999.99 997.65 995.89 995.21 994.72 994.72 994.86 994.77 994.68 994.66 995.06
1026.16 1025.31 1024.83 1025.35 1025.39 1025.60 1025.53 1023.79 1022.91 1022.54 1022.23 1022.14 1021.61 1021.17 1020.39 1019.99 1019.71 1018.95 1018.15 1017.05 1016.42 1016.56 1016.35 1015.01 1012.54 1008.95 1006.72 1006.19 1005.52 1005.33 1003.85 1004.13 1002.57 1001.11 999.31 996.38 995.22 993.94 993.62 993.59 994.02 994.22 994.55 994.81 995.19
1026.09 1025.63 1025.11 1025.37 1025.53 1025.63 1024.65 1023.51 1022.94 1022.35 1022.22 1022.41 1021.85 1021.49 1021.05 1020.51 1019.97 1019.06 1018.05 1016.74 1016.33 1016.10 1015.95 1015.23 1013.33 1008.74 1007.29 1005.58 1004.33 1004.20 1003.13 1002.88 1002.05 1000.30 998.39 996.34 994.59 993.92 993.96 993.79 993.88 994.38 994.78 994.98 995.23
1026.53 1025.76 1025.21 1025.24 1025.61 1024.94 1024.14 1023.68 1023.39 1022.42 1022.23 1022.12 1022.05 1021.79 1021.11 1020.55 1020.05 1019.22 1018.25 1017.54 1016.94 1016.66 1014.83 1014.29 1012.91 1009.52 1007.37 1005.06 1004.56 1003.27 1002.07 1002.27 1000.94 999.57 997.95 996.80 995.37 995.45 995.53 995.48 995.60 995.62 996.23 996.43 995.95
1026.60 1025.68 1025.63 1025.91 1024.98 1024.23 1024.09 1024.10 1023.62 1022.59 1022.21 1021.87 1021.73 1021.43 1021.15 1020.78 1020.26 1018.88 1018.17 1017.14 1016.84 1016.13 1014.71 1013.38 1011.89 1009.63 1006.67 1004.67 1004.41 1003.38 1002.05 1001.35 1000.91 999.75 997.91 997.70 996.17 995.76 995.92 996.07 996.49 996.41 997.00 997.35 997.47
1027.03 1025.51 1025.51 1025.62 1024.74 1024.46 1023.83 1023.41 1023.00 1022.55 1022.27 1021.87 1021.26 1021.09 1020.80 1020.19 1019.80 1018.99 1018.19 1017.04 1016.53 1015.38 1013.83 1013.57 1011.80 1011.02 1009.51 1007.98 1006.04 1003.39 1002.61 1001.41 999.92 998.95 997.80 996.80 997.13 995.84 996.45 996.72 997.02 997.31 997.83 998.10 998.58
1026.72 1025.30 1025.13 1024.61 1024.27 1024.03 1023.69 1023.06 1022.42 1021.74 1021.75 1021.46 1020.92 1020.79 1020.62 1019.81 1018.95 1018.36 1017.54 1016.59 1015.76 1015.00 1014.26 1013.03 1011.54 1010.63 1009.56 1007.90 1005.45 1003.43 1002.15 1001.33 1000.12 999.01 998.46 997.62 997.15 996.45 997.02 997.45 997.88 998.10 998.50 998.78 999.25
1026.55 1025.59 1025.07 1024.34 1023.79 1023.44 1022.88 1022.35 1021.61 1020.46 1021.09 1020.08 1020.51 1019.77 1019.62 1019.24 1018.73 1017.69 1017.51 1016.84 1016.27 1014.73 1014.51 1013.09 1011.59 1010.38 1008.79 1007.60 1006.04 1004.40 1003.08 1001.64 1000.60 999.81 998.96 998.49 997.84 997.16 997.34 997.83 997.99 998.36 998.69 998.98 999.52
1026.16 1025.92 1025.27 1023.67 1022.89 1022.47 1021.49 1021.08 1020.58 1020.24 1019.71 1019.43 1019.33 1019.07 1018.50 1018.38 1017.84 1017.25 1017.01 1016.44 1016.01 1015.64 1014.55 1013.86 1012.29 1011.17 1008.83 1007.47 1006.00 1004.92 1004.19 1002.76 1001.08 1000.22 999.34 998.63 998.32 998.44 998.01 998.15 998.37 998.57 998.83 999.19 999.58
Wind_Speed
19 19 18 19 19 20 21 22 23 23 24 24 25 22 22 25 27 11 5 12 11 17 13 12 10 7 5 6 7 4 9 15 21 19 16 5 7 8 3 11 6 7 1 7 17
19 20 20 19 20 20 21 22 22 22 23 24 26 26 25 25 24 8 11 15 16 9 9 9 10 5 7 6 6 10 13 21 17 18 14 14 8 12 6 11 11 10 7 11 16
17 17 17 18 20 20 20 21 22 23 23 23 24 25 27 24 13 6 13 18 18 14 8 9 9 9 11 10 11 9 20 17 16 10 14 16 13 11 11 15 14 15 15 13 16
16 16 17 18 19 20 20 21 21 21 23 23 23 23 25 17 5 3 13 15 18 15 9 7 7 9 9 13 14 15 19 17 19 10 9 15 15 14 16 16 7 11 6 17 17
20 18 18 18 19 19 20 21 23 23 22 23 23 21 19 11 8 7 10 14 18 17 10 9 10 11 19 11 15 18 20 18 13 17 14 15 15 18 18 14 5 3 3 14 15
20 20 21 20 20 20 21 22 24 25 24 23 22 18 11 11 7 12 14 22 17 15 11 10 7 9 15 18 17 13 12 19 19 16 17 16 21 21 16 18 16 11 10 11 15
20 19 20 22 22 22 22 23 24 25 27 26 20 11 12 19 17 20 17 18 17 14 17 12 11 11 7 15 15 18 21 19 20 17 16 11 23 27 20 21 15 19 16 13 14
19 20 19 21 22 22 24 24 25 26 25 24 14 7 7 9 11 12 14 16 11 11 15 15 14 16 17 15 16 12 18 21 17 21 13 13 22 17 21 23 25 22 18 16 19
20 20 21 21 21 23 24 25 25 24 16 11 2 4 5 1 7 12 16 14 15 12 11 13 10 13 12 16 16 20 18 21 19 10 14 20 17 16 20 16 20 23 23 21 19
20 21 21 21 21 22 24 24 21 9 16 3 2 8 4 9 11 19 17 12 18 14 9 13 10 14 17 17 23 18 21 22 23 13 20 21 24 18 9 9 19 20 19 20 22
19 20 19 20 21 20 16 10 7 4 14 3 17 14 17 12 17 11 17 20 21 21 15 15 16 28 27 27 25 25 21 25 20 20 13 20 21 22 19 20 18 16 15 19 21
18 17 18 19 21 15 8 8 7 4 12 17 17 14 14 9 9 8 17 11 14 19 20 16 29 26 23 26 28 29 29 30 18 13 8 15 22 20 21 22 23 22 23 22 19
17 18 19 19 17 4 9 8 7 9 7 6 4 5 4 8 9 8 14 13 16 20 20 24 27 19 27 28 29 31 33 26 25 10 10 16 23 25 26 25 25 24 23 23 23
18 19 19 19 5 7 5 7 9 8 6 3 1 4 2 9 1 19 16 6 8 13 19 21 31 32 30 29 30 30 25 25 24 19 19 13 17 21 16 23 25 24 23 23 22
16 17 17 9 7 5 8 7 10 4 7 4 3 3 8 8 16 18 17 8 19 24 5 30 26 26 30 34 26 32 20 22 22 21 14 22 15 19 18 25 24 21 21 22 21
17 16 17 4 4 5 2 6 6 3 6 5 5 7 15 19 20 17 9 14 16 20 20 32 30 26 19 20 29 20 22 21 15 13 13 28 21 18 20 22 17 18 20 21 21
17 18 13 5 5 3 1 4 4 4 6 2 8 18 15 22 20 17 19 23 18 18 18 26 22 32 29 30 25 26 18 9 11 9 17 18 19 28 15 16 16 21 20 20 18
18 17 5 6 3 5 1 2 5 2 6 15 18 17 22 19 11 19 22 21 23 18 14 13 18 20 29 30 16 31 26 11 16 14 25 12 16 19 13 22 22 17 15 14 15
15 6 5 3 3 4 2 6 5 8 6 14 16 17 13 15 18 19 19 24 12 17 6 10 12 25 25 29 26 21 30 30 14 1 7 12 27 23 13 10 11 16 15 17 15
6 6 4 3 4 2 3 10 7 6 11 12 16 9 18 22 21 19 20 17 14 16 12 6 18 17 18 24 30 25 25 23 16 15 13 15 21 13 16 22 22 17 14 13 12
4 4 3 3 4 2 6 9 6 13 9 6 12 18 20 18 17 21 21 22 18 15 23 20 15 16 9 9 30 25 24 17 20 18 13 9 11 3 15 17 11 7 5 10 14
2 4 4 7 4 3 7 4 3 12 12 10 8 12 14 18 19 20 19 18 22 23 20 19 8 13 23 11 18 28 28 27 17 24 21 11 9 4 5 8 7 9 3 5 9
3 3 2 2 6 8 8 6 6 14 11 5 10 13 14 17 14 13 17 19 20 20 7 7 4 12 17 9 12 10 25 28 26 19 20 14 8 3 6 5 4 5 2 1 1
3 4 4 4 7 9 14 12 12 6 9 8 12 13 15 16 16 12 23 13 19 26 22 17 5 10 14 20 24 11 17 27 28 21 17 21 14 18 8 9 7 5 2 2 3
3 4 3 3 7 12 14 11 17 19 13 12 8 10 13 10 17 17 19 20 19 13 16 5 8 9 14 18 15 11 17 25 28 25 21 15 7 19 4 8 5 3 2 2 3
4 5 2 7 9 12 17 16 21 24 16 20 18 22 16 16 17 21 20 18 18 16 16 8 8 16 16 10 13 12 12 19 25 22 20 17 2 9 8 3 5 2 1 2 4
2 4 7 8 12 12 13 16 16 18 15 16 16 19 18 17 18 15 14 17 19 20 19 12 7 12 9 12 17 5 5 9 18 23 20 16 15 3 6 6 4 3 3 4 3
Wind_Direction
19 12 10 5 3 355 353 351 348 344 347 347 349 335 333 331 321 318 340 348 315 310 312 294 268 250 245 240 240 264 247 244 247 255 268 282 253 208 329 276 220 185 318 102 129
15 11 9 6 2 359 357 350 347 344 343 341 341 342 339 328 318 298 14 360 345 321 293 298 288 249 238 233 216 221 238 243 257 270 282 276 268 272 233 224 214 197 123 132 142
10 7 3 1 355 352 352 349 346 342 337 336 336 335 339 319 305 88 9 3 357 332 290 293 288 277 248 231 220 222 244 257 257 271 280 280 268 252 254 254 229 215 181 161 164
1 355 352 351 348 345 346 344 339 336 334 333 332 329 332 320 328 74 8 1 352 346 310 292 254 244 248 231 227 250 252 257 267 276 268 256 270 261 244 250 3 306 255 167 181
356 350 346 342 339 340 340 337 334 331 328 326 327 335 326 312 269 342 348 348 331 337 319 301 273 255 254 261 257 237 257 264 255 265 248 269 257 256 262 253 185 37 261 185 195
351 351 348 341 336 335 334 331 328 326 322 321 319 323 319 271 351 321 313 323 317 323 298 296 273 306 286 274 261 277 258 263 253 246 252 249 255 251 248 248 249 208 220 214 209
343 340 342 342 340 332 330 326 322 318 317 315 309 295 283 254 304 304 306 308 306 291 286 279 293 267 300 260 277 261 271 261 246 247 243 259 256 248 248 258 246 233 221 225 216
349 352 341 333 334 334 327 323 316 309 315 317 310 262 261 290 310 312 328 327 330 300 256 275 274 273 260 269 282 259 247 255 245 233 224 212 257 255 232 233 243 238 230 219 225
346 348 339 337 336 332 326 318 307 308 323 307 225 208 282 265 351 358 329 335 332 330 281 243 274 245 239 230 254 233 254 237 250 225 213 212 261 249 242 240 243 237 235 231 221
347 345 341 336 339 334 326 309 301 292 348 214 153 262 196 358 328 322 313 324 331 316 300 230 227 240 221 212 227 232 236 245 257 220 218 227 240 250 221 263 246 244 241 233 231
345 340 332 333 333 332 330 330 8 196 6 26 297 282 290 323 324 336 331 309 298 301 276 231 225 227 225 224 239 251 248 237 241 228 227 242 255 253 248 243 236 241 244 245 226
339 336 340 336 338 336 347 35 56 298 301 285 278 279 279 292 299 350 356 342 315 276 280 247 243 242 245 243 239 239 243 248 258 246 224 267 264 255 253 248 251 246 241 236 237
342 342 343 341 329 341 9 33 350 341 276 302 282 303 360 318 333 9 359 344 329 284 272 270 268 271 236 249 240 234 234 237 246 255 239 273 268 259 252 249 246 244 242 242 237
348 342 343 342 294 343 352 354 329 323 287 300 104 106 343 305 77 325 335 310 281 288 299 277 264 260 269 256 240 242 234 249 250 249 253 223 277 266 262 241 227 233 231 233 234
341 341 343 358 318 318 332 336 321 265 312 52 88 98 343 8 301 336 322 305 291 295 320 267 264 245 242 250 257 251 248 245 243 245 265 255 263 264 238 244 240 236 227 231 227
341 336 334 330 297 344 6 318 294 249 257 341 338 0 333 328 323 320 342 314 281 277 281 280 259 259 277 274 239 268 243 241 233 233 238 239 237 260 242 246 249 247 238 222 227
338 328 322 303 326 125 304 301 264 226 18 275 341 335 316 312 320 326 330 319 301 296 291 299 283 260 242 259 257 223 221 194 203 200 233 222 224 235 245 232 250 242 238 236 225
337 317 326 297 312 180 219 255 258 340 264 300 307 313 303 319 319 321 317 307 305 281 289 303 295 231 238 218 266 208 211 208 196 196 234 191 229 226 238 243 248 252 246 251 235
328 312 292 7 230 205 213 239 267 306 330 320 321 300 314 306 315 315 309 302 319 316 327 310 280 309 290 234 209 223 215 219 247 95 263 213 236 268 257 243 240 246 241 235 220
319 310 306 32 176 136 223 251 278 262 295 295 296 289 302 316 314 312 309 293 292 304 305 277 300 300 292 257 217 232 218 218 235 240 230 228 236 242 198 225 228 236 224 231 226
291 304 99 155 172 201 246 268 286 279 286 290 296 299 300 302 308 301 294 288 304 312 309 297 256 274 288 240 211 223 220 217 226 231 232 243 239 283 237 255 249 246 293 254 215
305 260 117 176 237 244 257 243 274 274 288 281 277 277 280 307 305 297 293 293 310 315 296 287 283 281 288 242 256 219 215 214 223 215 237 251 236 49 341 323 306 278 276 300 273
275 260 155 257 255 239 239 271 268 279 276 274 259 268 290 289 292 286 300 298 306 298 285 342 268 311 323 271 220 269 218 216 219 232 233 233 231 52 16 341 333 308 301 76 291
275 274 172 206 264 276 281 271 271 223 273 270 271 285 285 282 280 289 299 306 313 316 292 274 253 265 275 285 292 195 235 225 219 221 222 228 228 256 9 352 348 358 337 93 163
236 259 350 250 229 242 254 274 277 271 264 270 280 258 281 283 299 292 312 314 324 333 336 289 267 275 286 301 302 301 244 217 230 227 226 229 223 233 17 339 338 334 326 116 88
279 292 194 260 254 263 271 264 268 278 275 275 261 282 284 283 281 293 304 309 309 313 325 307 294 317 299 322 326 303 272 245 224 231 236 239 289 316 351 337 343 24 38 92 147
245 275 267 273 269 256 249 256 266 280 279 270 273 280 282 284 290 291 291 285 277 286 291 285 309 329 301 323 317 262 347 314 243 230 230 225 226 68 347 351 37 58 85 79 101